Wind_Speed
13 6 4 6 7 9 10 10 8 7 9 9 6 4 4 2 3 3 5 5 2 1 5 5 7 10 11 11 10 8 8 9 12 16 20 22 23 24 26 28 29 30 27 22 24 27 26 26 25 26 27 27 28 29 30 30 30 30 29 29 28 27 25 25 25 25 25 25 25 25 24 24 22 20 20 20 20 19 19 18 17 16 15 16 15 12
9 8 7 8 11 13 12 9 9 9 9 9 6 4 2 1 3 4 6 5 2 1 5 3 5 10 11 12 10 7 7 11 17 18 20 23 24 26 28 29 31 30 27 26 28 29 28 27 26 27 27 28 29 28 30 31 31 31 30 31 30 28 27 27 26 26 27 27 26 25 25 23 21 20 21 21 20 18 18 19 19 17 17 17 16 14
5 6 7 10 12 11 8 9 10 9 8 7 5 4 2 1 2 5 4 4 3 1 5 4 3 9 11 12 11 11 12 17 22 23 23 23 22 25 28 30 32 31 29 29 30 30 28 28 28 29 29 28 28 27 29 30 30 31 31 32 31 30 30 28 27 28 28 27 25 24 22 20 19 20 20 20 19 17 17 19 19 18 18 18 17 15
4 4 10 14 13 11 8 9 9 6 5 4 5 5 3 2 2 2 2 4 2 2 3 5 5 8 9 9 9 14 21 22 23 23 24 24 22 25 26 26 29 31 32 31 30 29 28 28 30 31 31 28 28 28 30 30 30 31 32 33 32 31 31 30 29 28 27 26 23 22 21 19 19 19 19 19 19 19 19 18 18 18 18 18 17 17
3 6 16 16 12 13 10 9 9 6 4 2 4 5 4 5 4 3 3 6 4 1 2 4 6 7 7 8 8 10 14 17 20 21 23 25 26 27 25 24 25 28 31 32 30 28 27 28 29 30 30 29 30 31 30 30 30 31 31 32 32 32 32 31 30 29 27 26 25 24 23 22 22 21 21 21 21 21 21 19 18 18 19 19 17 16
2 8 17 14 9 12 11 9 10 8 5 1 3 5 6 6 5 3 4 5 4 3 1 0 4 6 4 6 8 6 4 9 13 15 21 27 28 27 26 26 26 25 28 31 31 29 28 29 29 30 31 31 32 32 30 29 30 30 30 31 32 32 32 32 31 30 29 29 27 27 26 26 26 25 25 24 23 23 23 20 17 17 19 20 18 16
2 7 11 11 11 12 10 8 9 9 6 1 5 8 8 7 5 3 4 2 0 4 2 3 4 6 6 6 8 4 4 8 8 8 17 25 26 27 29 30 29 27 27 30 31 30 29 30 30 31 31 32 33 31 29 30 31 31 30 31 32 32 33 32 31 31 32 32 30 29 28 28 27 27 26 24 22 21 20 18 16 16 18 19 19 17
5 9 7 9 11 9 9 7 8 10 7 2 6 12 12 10 8 6 2 1 2 4 4 3 4 4 7 7 4 1 4 8 7 7 13 20 25 28 30 31 32 30 29 29 31 30 29 29 29 29 30 31 31 29 30 32 32 31 30 31 32 33 33 32 32 33 33 33 32 31 30 29 28 27 25 21 20 19 17 16 16 16 17 18 19 18
6 12 10 11 10 7 8 7 10 12 5 2 5 9 11 9 7 6 4 3 2 2 6 5 3 2 7 6 3 1 4 8 9 8 10 18 26 30 32 33 32 33 32 30 30 30 30 30 27 26 26 26 28 28 31 33 32 31 31 32 33 33 33 33 33 34 34 34 33 32 30 30 29 26 24 22 21 19 18 18 17 17 19 20 19 18
2 11 15 13 9 7 4 5 12 11 3 3 6 6 5 5 4 5 4 2 1 2 9 6 4 4 7 4 1 2 4 7 8 7 9 17 24 29 32 34 33 34 34 33 32 32 32 32 29 26 24 25 26 28 30 30 31 31 32 33 33 33 33 33 34 34 34 34 33 33 32 30 29 27 26 25 23 22 21 20 19 20 21 22 19 17
1 7 11 7 4 7 7 6 9 9 7 8 7 7 6 5 4 3 2 3 2 5 7 3 5 4 5 4 5 5 5 7 7 6 8 15 20 24 27 30 31 33 34 35 36 36 36 35 33 30 28 27 27 27 29 30 30 32 33 34 34 33 32 32 33 34 34 35 35 34 33 31 30 28 28 27 26 25 24 23 22 23 23 22 20 17
4 6 5 2 7 12 10 6 4 4 8 8 4 5 5 3 3 3 3 2 2 6 3 3 2 5 6 6 3 5 6 6 7 7 8 13 21 25 25 25 26 27 30 33 36 39 39 39 38 35 33 31 29 29 30 30 29 30 32 34 34 34 33 33 33 34 34 35 35 35 33 32 31 30 29 28 28 27 26 25 24 24 25 24 21 19
3 2 1 3 9 13 11 6 3 4 4 5 4 6 4 2 2 0 1 0 4 5 2 2 2 4 9 7 5 9 7 8 10 12 14 16 22 27 26 23 20 21 26 29 32 36 38 40 40 39 38 34 32 31 30 30 29 29 30 32 35 35 35 34 34 34 34 35 35 35 34 32 31 31 30 29 29 28 27 27 25 26 28 26 23 22
2 3 2 3 4 10 12 8 5 2 3 5 6 7 5 3 2 4 3 1 5 5 3 3 2 4 7 4 9 13 11 14 17 18 21 21 22 24 24 21 19 20 24 26 29 31 33 36 37 39 39 37 34 32 30 30 29 29 29 30 33 34 34 35 35 35 35 35 35 34 33 32 31 31 30 29 29 28 27 27 26 27 28 25 23 21
6 1 6 7 5 10 12 8 9 9 7 6 5 5 6 6 4 5 5 4 4 3 3 2 2 4 4 2 8 11 12 17 18 20 21 22 23 24 24 23 22 22 23 24 26 28 29 31 33 36 37 37 35 32 31 31 31 31 30 30 30 32 33 35 35 35 35 35 35 34 33 32 32 31 30 30 29 29 28 27 26 27 27 26 23 20
9 3 4 5 8 14 12 6 8 10 5 2 1 2 4 5 3 3 3 3 2 0 2 3 3 5 3 5 9 8 10 14 18 20 20 23 25 24 26 28 27 26 24 22 23 24 26 27 29 32 35 36 35 33 33 32 32 31 31 30 30 30 31 32 34 35 35 35 34 34 34 33 32 31 30 30 29 29 28 28 27 27 26 25 21 20
7 1 1 3 6 14 13 9 11 11 6 1 2 4 3 3 4 4 2 1 4 2 3 3 6 5 3 8 11 7 7 9 11 14 18 26 27 23 25 30 30 30 26 23 23 22 23 24 25 28 31 34 34 34 34 32 31 32 32 32 32 31 31 32 33 33 33 34 34 34 34 33 32 31 30 30 29 28 28 28 28 27 26 24 21 21
6 3 1 2 5 10 12 14 12 9 8 6 6 7 4 2 2 3 1 1 2 4 4 2 7 5 2 6 6 4 8 9 8 9 14 22 24 22 28 31 31 30 27 24 22 21 21 20 21 24 26 29 30 31 31 31 31 32 33 34 34 33 33 32 32 32 33 33 34 34 33 32 32 31 30 30 29 29 29 28 28 27 26 24 22 22
6 4 2 0 4 4 4 10 7 4 4 4 5 9 7 2 3 3 3 2 3 4 3 3 4 4 5 6 4 3 9 10 10 9 8 13 19 24 31 32 29 27 25 22 21 20 19 18 18 21 23 25 27 28 28 29 30 31 31 32 32 33 33 32 33 33 34 34 34 34 33 32 32 30 30 29 29 30 29 27 28 29 26 23 22 22
5 5 1 1 2 3 2 5 7 5 2 2 3 7 3 0 3 4 3 2 3 4 3 3 3 3 7 6 4 6 8 9 10 9 6 11 17 20 22 23 23 23 22 21 21 21 19 18 18 20 23 24 25 26 27 27 27 28 28 29 30 31 31 32 33 33 34 34 34 33 32 32 31 30 29 29 29 30 28 27 29 28 25 23 23 23
3 4 4 1 1 5 4 5 8 10 7 4 6 8 4 1 2 1 2 2 3 4 3 2 3 6 5 4 8 10 9 10 10 9 8 11 12 10 11 13 14 16 16 16 18 21 20 18 18 20 23 23 24 24 24 25 25 26 27 28 29 30 30 31 32 33 34 34 33 33 32 32 31 30 29 29 30 30 28 29 29 25 24 25 25 24
2 3 6 5 3 4 3 3 5 8 9 7 7 8 9 6 3 3 5 3 3 3 4 2 5 8 5 4 7 10 8 6 4 5 8 9 8 7 7 8 10 12 12 12 14 18 19 18 18 20 21 22 22 23 23 23 25 26 27 29 30 31 32 32 33 33 34 34 34 33 32 31 31 29 29 30 31 30 29 28 27 24 25 27 27 25
4 5 5 4 4 4 3 4 2 4 6 5 3 6 8 7 6 6 6 3 2 2 2 3 4 7 4 5 6 7 8 9 9 8 11 15 15 14 13 13 14 14 12 12 13 14 16 16 17 19 21 21 22 22 23 24 25 27 28 28 29 30 30 31 32 33 34 34 34 32 31 30 29 29 30 30 30 31 30 28 27 25 26 27 27 25
5 5 5 5 2 1 3 4 2 1 3 6 6 5 6 6 8 5 2 3 3 4 3 2 5 6 3 2 5 8 10 13 17 16 16 21 22 20 17 16 16 15 13 12 12 13 15 17 18 20 21 21 22 22 23 24 25 25 25 25 25 25 25 26 28 30 31 32 31 30 28 28 27 28 29 29 30 31 29 27 29 28 26 28 28 24
4 3 5 7 4 1 2 1 2 2 4 6 5 5 5 6 5 3 1 2 1 6 7 5 8 9 4 2 4 8 7 9 16 15 13 17 19 17 14 12 13 13 12 11 11 13 15 16 18 19 19 20 20 20 21 22 23 23 22 22 22 22 22 24 25 26 28 28 27 26 26 26 26 26 27 27 28 29 29 28 30 28 26 27 26 24
6 5 6 8 7 7 6 6 6 5 4 2 3 8 11 10 10 6 2 3 6 8 8 7 11 8 4 2 4 7 6 7 9 7 5 10 12 12 11 9 8 8 7 8 10 12 15 16 17 18 18 18 18 19 20 21 21 21 21 21 21 21 22 23 23 24 24 24 24 24 24 23 24 25 27 27 28 29 29 29 29 29 28 27 25 26
5 4 7 10 12 12 9 6 6 10 9 9 11 14 15 12 12 7 4 7 11 5 6 13 14 8 7 5 5 6 5 6 7 6 6 6 8 10 10 8 5 5 5 6 8 11 14 17 17 17 17 17 17 17 18 19 19 20 20 20 20 20 21 21 22 22 22 22 22 22 23 23 23 25 26 26 27 28 27 29 30 31 29 27 26 28
5 6 11 13 12 8 5 6 9 14 15 15 14 15 15 14 14 11 11 15 8 4 8 15 12 12 12 7 6 9 5 5 7 7 8 9 10 11 10 8 6 6 5 6 7 9 12 15 16 16 16 16 16 16 17 18 19 20 19 19 19 19 19 19 20 21 21 21 21 21 23 25 25 25 25 26 27 28 29 31 31 30 28 26 27 30
4 9 14 13 10 3 4 7 11 12 10 11 14 16 16 17 18 17 21 20 9 7 14 9 9 15 13 6 9 12 7 5 4 5 10 13 14 14 12 11 9 8 8 8 8 8 9 11 13 14 15 15 16 17 18 18 19 20 19 19 18 17 17 17 18 20 21 22 22 22 23 23 24 25 27 28 29 30 31 30 29 27 27 27 30 31
2 6 7 9 7 4 5 3 8 10 6 5 11 14 14 18 22 23 25 22 12 13 17 6 6 13 8 6 11 11 10 12 10 12 15 16 17 17 14 14 12 10 10 10 9 9 8 8 10 12 14 15 16 17 17 18 18 19 19 18 17 16 16 17 18 20 22 23 24 25 25 24 24 25 26 28 30 30 29 28 27 28 28 30 31 32
2 2 2 6 6 5 6 4 4 7 8 7 9 11 13 18 20 21 22 17 12 18 21 10 8 14 9 9 12 13 15 15 13 17 23 24 24 20 17 19 18 15 13 11 10 9 8 7 8 10 12 14 16 17 16 17 17 17 18 17 17 17 16 17 18 20 22 24 24 26 26 27 28 29 30 31 31 30 29 28 28 29 30 32 33 33
4 2 2 6 6 1 2 5 6 5 5 4 8 15 18 17 16 17 17 15 16 20 19 11 12 15 10 10 11 15 17 15 15 20 25 26 24 19 21 26 27 25 21 16 12 12 10 9 8 10 12 12 14 15 15 15 16 17 18 18 18 18 18 18 18 19 22 24 26 27 28 29 30 31 32 32 30 29 28 28 30 31 32 34 34 34
4 4 2 5 6 2 2 4 7 7 5 3 11 17 20 17 15 15 15 17 20 18 13 12 15 10 5 8 10 11 11 14 20 25 29 31 26 21 24 29 30 30 27 24 22 20 18 15 12 13 14 12 12 13 13 14 15 16 17 18 19 19 19 19 19 19 22 24 26 27 28 28 29 30 30 29 28 28 29 30 31 33 34 35 34 34
7 7 4 4 5 3 4 5 6 4 4 8 8 12 18 19 20 20 19 19 19 15 13 14 13 5 5 9 11 10 13 18 25 30 35 37 33 26 27 30 32 33 31 29 27 24 20 17 14 14 14 12 11 11 12 13 14 15 17 19 20 20 20 20 20 20 22 24 25 26 27 27 28 28 28 28 28 29 30 31 33 34 35 35 35 35
9 8 5 4 5 4 5 6 5 7 10 7 2 11 20 24 24 22 19 17 15 15 17 19 18 12 9 12 14 14 17 23 27 31 36 39 37 29 26 32 35 33 30 28 23 18 15 13 12 12 11 11 11 11 12 12 13 16 18 20 22 22 21 21 22 22 23 24 25 26 26 26 27 27 28 29 29 30 31 33 34 35 35 35 35 35
11 9 5 3 4 3 4 7 8 8 6 5 2 6 13 15 14 14 13 14 15 17 19 22 22 19 16 18 20 20 23 24 24 29 35 38 37 31 27 31 35 32 27 24 19 16 14 11 10 10 10 10 12 12 12 12 13 15 17 19 21 23 23 22 23 24 24 25 26 27 27 27 27 28 29 29 30 31 33 34 35 35 36 36 36 36
10 9 5 3 3 2 5 6 4 5 8 9 7 5 6 8 9 10 9 15 17 18 19 19 18 17 17 21 26 25 21 16 14 23 34 35 34 35 34 35 35 31 26 23 21 19 16 14 14 13 12 12 11 11 12 13 14 15 16 18 20 22 24 25 25 25 25 27 28 28 28 28 28 28 29 30 31 33 34 35 36 36 37 37 38 37
5 7 7 6 2 3 5 3 3 3 9 10 5 3 8 14 14 12 8 12 12 16 20 18 16 16 15 17 23 19 12 8 7 16 31 36 36 40 41 38 35 31 29 27 24 21 19 19 19 18 17 15 12 11 12 13 14 16 16 17 18 19 23 25 25 25 26 28 29 29 29 29 29 29 30 31 32 33 35 36 37 37 38 38 38 37
4 3 6 6 3 4 6 5 6 8 10 5 5 6 13 22 18 11 3 9 6 14 27 25 18 17 17 19 21 14 8 6 7 16 33 39 37 36 36 34 33 31 31 30 27 25 25 24 23 22 21 18 14 12 11 12 13 15 16 16 17 18 20 21 23 24 25 26 28 29 30 30 30 30 31 31 33 34 35 36 37 38 39 39 38 36
5 3 4 6 5 5 6 5 5 6 7 5 7 9 17 26 21 12 1 9 6 13 26 26 19 21 27 29 21 10 8 12 12 20 33 33 27 26 26 26 28 28 29 29 28 26 25 23 23 23 21 18 15 12 11 11 12 13 14 14 15 16 16 16 18 20 22 24 27 29 30 31 31 31 31 32 33 35 36 37 38 39 40 39 38 36
3 3 3 7 8 5 6 7 4 4 7 6 5 12 24 25 14 6 7 8 5 7 14 19 24 30 33 28 18 13 20 29 24 21 23 18 15 16 16 17 20 21 21 21 19 17 16 15 16 16 16 15 14 11 10 11 11 11 11 12 12 12 12 13 15 17 19 22 24 27 29 30 31 31 32 33 34 36 37 38 39 40 40 39 38 37
7 5 3 6 7 4 4 5 3 6 8 8 8 14 21 15 4 7 8 4 3 3 7 16 25 30 29 25 24 26 33 34 27 22 17 11 7 6 6 8 9 9 10 10 9 9 9 9 10 11 11 12 11 10 10 10 10 10 10 9 9 8 10 11 13 15 17 19 21 23 26 28 30 31 32 33 34 36 37 38 39 39 39 39 38 37
8 8 7 7 6 4 2 5 4 7 7 18 19 8 8 6 3 7 10 6 4 3 6 13 18 21 21 22 23 27 28 24 22 23 21 15 9 7 8 7 6 6 6 5 4 5 5 5 5 6 7 9 10 11 10 10 10 9 8 7 6 7 8 9 10 12 14 16 17 19 22 24 27 29 30 32 33 35 37 38 39 40 40 39 38 38
7 8 8 6 5 6 6 9 7 4 8 27 24 9 12 11 2 6 12 9 7 7 8 10 12 12 13 14 13 15 17 16 15 16 16 16 14 12 12 10 8 7 5 3 3 3 1 2 2 3 5 7 8 8 8 7 6 5 4 4 4 4 6 6 8 10 11 13 15 16 18 20 23 26 28 30 33 35 37 38 39 40 41 40 39 39
7 7 6 4 4 5 6 7 5 1 11 25 17 11 24 25 8 5 11 9 9 12 9 8 10 10 10 9 7 7 8 9 9 9 9 9 9 9 9 8 8 7 6 5 4 3 2 4 4 5 6 7 7 7 7 6 5 5 4 3 2 2 4 5 7 8 9 11 13 14 15 18 20 23 26 29 32 34 37 39 40 41 41 41 41 40
3 5 6 4 2 4 5 5 4 1 9 20 12 9 28 33 14 5 8 7 8 12 11 11 12 11 11 10 8 7 7 7 7 7 6 7 7 8 8 9 8 7 6 5 4 4 5 5 6 8 8 8 9 8 7 7 6 4 3 2 1 2 4 5 7 8 9 11 11 12 14 16 18 21 24 27 31 34 36 38 40 41 42 42 42 41
2 6 6 4 5 5 6 7 8 6 13 22 16 10 23 31 20 8 7 8 9 11 12 13 12 11 10 10 9 9 8 8 8 7 6 6 7 8 9 9 8 7 6 5 4 5 6 7 8 9 9 8 8 6 5 4 3 2 2 2 2 4 5 6 7 8 9 10 10 11 12 14 16 19 22 25 29 33 36 38 39 41 42 42 42 41
5 9 8 6 7 7 5 5 7 7 14 22 19 12 18 29 28 16 9 10 11 12 13 13 11 11 11 10 10 10 9 9 9 8 7 6 6 6 8 8 8 7 6 5 6 7 8 8 8 8 7 5 5 4 3 2 1 1 2 3 4 5 5 6 7 7 8 8 9 10 11 12 14 16 19 23 26 30 34 37 39 41 42 41 41 41
9 11 7 4 5 3 3 0 4 4 4 14 21 19 19 25 31 28 21 16 14 13 13 13 11 10 10 10 11 11 10 10 10 8 8 8 7 7 7 8 8 7 7 7 7 8 9 9 7 6 5 4 3 3 2 2 2 3 3 4 5 6 5 6 7 7 8 9 9 9 10 11 13 14 17 20 23 27 31 35 38 40 41 41 41 41
10 7 3 4 5 7 5 7 11 6 2 12 24 28 25 23 26 29 28 24 18 15 13 12 11 11 11 11 11 11 10 10 9 8 8 8 8 8 8 7 7 7 7 8 9 9 10 9 7 6 5 4 4 4 3 4 4 4 4 4 5 4 4 5 6 6 8 9 8 9 9 10 11 13 15 17 20 24 28 32 36 39 40 41 41 41
9 9 9 9 9 9 9 19 25 15 7 16 29 33 30 26 24 23 25 24 22 17 14 13 12 12 12 11 9 9 9 8 8 8 8 8 9 9 8 8 8 8 8 9 10 10 9 8 7 6 5 5 5 5 5 6 6 5 5 4 3 3 4 5 6 8 9 9 9 9 9 9 10 12 14 16 19 22 25 29 33 37 40 41 42 42
Wind_Direction
150 146 186 183 158 164 178 186 178 154 149 141 135 164 155 178 271 274 263 289 2 256 260 235 237 256 255 260 257 231 233 239 239 241 240 240 241 239 237 235 235 236 237 235 233 233 233 234 235 234 234 233 233 232 231 229 228 228 229 230 230 231 234 236 235 234 232 231 230 230 231 232 231 231 234 237 238 239 239 239 240 246 253 258 264 265
158 188 198 170 160 171 178 163 140 135 140 131 129 158 150 148 277 278 267 288 349 211 264 278 259 264 262 264 260 221 215 236 235 237 241 241 242 243 243 241 240 240 241 237 235 234 233 234 235 236 237 236 236 234 233 232 230 230 230 231 230 230 233 234 235 233 231 231 230 231 232 234 234 233 236 240 243 248 250 247 243 244 250 256 266 269
172 204 175 154 158 159 153 141 140 145 145 136 131 135 167 179 294 288 291 333 2 214 271 318 286 264 263 262 254 222 222 243 243 244 248 247 245 245 247 247 245 243 241 238 237 236 234 234 234 236 237 237 239 238 237 235 234 233 232 232 231 230 231 232 234 234 231 230 230 233 236 238 239 238 240 244 248 252 254 251 245 243 246 251 259 266
177 194 153 149 150 140 140 160 160 161 152 142 142 146 185 140 91 272 314 352 338 192 257 312 306 274 267 264 259 236 233 245 249 248 252 250 248 251 253 256 253 247 243 240 238 236 234 234 234 235 236 237 238 239 238 237 235 234 232 232 233 231 231 231 233 233 232 230 230 233 235 238 241 239 239 242 245 246 250 253 246 243 246 249 253 256
140 153 154 149 150 148 150 169 169 175 186 172 167 164 166 153 155 214 306 331 314 262 236 304 307 277 260 257 262 246 232 242 247 243 247 247 247 251 253 257 258 251 246 244 241 237 235 234 234 235 236 236 237 237 238 237 236 235 233 233 233 233 232 231 232 232 232 230 228 229 232 235 237 236 236 237 238 241 246 251 247 241 242 245 250 253
135 162 159 147 150 154 150 171 177 174 176 199 212 180 157 162 170 216 306 343 342 318 287 306 282 270 280 261 249 248 225 239 242 233 239 244 245 245 248 254 257 254 247 244 243 240 238 237 237 237 237 237 237 237 237 238 238 238 237 236 235 235 233 232 232 231 232 231 229 229 231 233 233 234 234 233 235 238 244 249 251 246 241 240 242 244
149 167 163 153 156 157 157 177 181 168 153 208 203 168 160 165 157 206 279 340 243 273 265 147 227 270 302 271 243 236 237 247 248 238 242 245 244 242 246 252 255 254 249 243 242 241 239 239 239 239 239 238 238 238 237 238 239 239 238 238 237 236 235 233 231 230 231 231 231 231 233 234 236 238 237 237 238 241 246 252 254 250 243 240 237 236
147 155 162 161 156 161 174 182 185 170 153 227 192 166 173 179 175 186 203 226 233 285 288 195 183 268 278 264 257 188 241 262 266 261 255 249 244 242 245 249 251 253 251 246 243 241 239 238 238 240 240 241 240 238 237 237 237 238 238 238 238 237 236 234 232 231 230 231 231 231 233 236 237 240 242 245 247 249 251 251 253 250 247 246 241 234
143 165 174 165 159 179 186 173 175 165 146 235 186 166 176 172 169 156 131 207 253 331 277 246 149 238 259 266 335 24 234 254 259 255 252 247 244 243 243 246 249 249 249 248 246 242 238 237 237 240 242 244 242 238 235 236 236 236 237 237 238 236 235 234 232 231 231 231 232 232 233 235 237 240 243 246 249 251 248 246 248 247 245 250 250 240
178 185 176 162 168 187 165 141 166 160 121 171 142 112 108 96 104 114 123 171 85 269 253 238 172 232 261 252 276 287 234 236 248 253 248 247 246 245 246 246 248 248 247 248 247 243 241 239 239 240 243 243 241 236 233 233 233 233 233 235 235 235 234 234 233 231 231 231 232 232 233 234 236 239 241 243 244 245 246 245 246 246 246 250 253 247
101 163 167 160 166 158 115 105 155 150 130 139 118 85 75 53 62 77 85 101 89 258 260 241 184 215 276 246 200 219 220 205 220 242 253 253 249 247 250 251 250 249 249 248 247 246 245 243 241 239 240 240 238 234 231 230 229 229 230 232 233 234 234 234 233 232 231 231 232 233 233 234 236 237 239 241 241 242 243 243 244 248 248 248 251 249
63 117 163 153 138 132 110 96 110 112 131 134 111 106 101 28 32 33 10 74 204 243 294 330 164 169 246 247 202 237 239 210 209 218 230 243 246 246 249 252 251 250 250 250 249 249 248 248 245 241 240 239 236 232 229 229 228 228 229 229 231 232 232 233 233 233 232 232 232 233 233 234 236 237 239 240 240 241 241 241 243 248 249 247 246 244
74 121 164 126 148 147 130 112 69 35 85 106 104 119 113 33 35 333 269 164 237 239 278 296 157 186 244 245 238 256 258 237 229 225 225 231 241 245 247 249 251 250 251 251 251 252 251 251 249 245 243 240 235 232 230 229 229 229 229 229 231 231 232 232 233 233 233 233 233 233 233 234 235 237 239 239 240 241 241 240 240 244 250 249 244 245
81 339 190 146 163 171 155 140 149 160 142 143 146 148 149 135 153 205 200 221 253 245 229 204 169 247 270 259 228 232 234 233 234 237 239 241 246 250 251 251 251 248 248 249 250 252 253 252 250 246 242 238 234 231 230 230 229 229 230 230 231 231 231 232 233 233 234 234 235 235 235 235 236 237 237 238 239 239 240 241 240 243 249 249 245 246
155 239 199 182 172 178 176 169 161 154 157 170 162 156 168 169 178 191 188 213 235 252 261 227 181 214 224 268 241 237 252 252 245 243 243 244 246 250 254 255 253 249 246 248 250 253 255 255 251 246 239 233 231 229 228 229 230 229 230 231 232 232 232 232 233 234 234 235 236 236 236 236 236 237 237 238 239 238 238 239 240 243 246 248 246 237
170 202 202 175 164 169 174 166 137 129 139 198 123 125 193 185 149 133 183 201 161 342 266 220 230 220 207 284 280 267 276 272 255 248 246 243 241 243 249 252 252 251 247 248 253 258 261 261 257 248 237 228 226 227 227 228 230 231 231 232 233 234 233 233 233 234 235 236 236 236 236 236 236 236 236 236 237 236 236 237 239 241 245 250 245 229
168 155 6 85 146 173 173 156 151 151 145 128 171 182 197 160 112 108 193 53 76 224 243 195 244 280 318 284 277 262 267 278 264 251 245 243 242 244 247 247 248 251 250 249 253 259 265 267 262 251 235 225 223 225 227 228 230 232 232 233 234 235 234 233 233 235 236 236 236 236 235 236 236 236 235 234 233 233 233 235 237 238 240 245 240 227
153 89 322 107 145 189 178 154 164 175 145 138 189 183 135 69 86 115 180 44 87 233 266 216 235 264 277 263 287 272 247 264 268 248 241 244 246 249 250 247 247 252 255 255 255 259 268 272 264 248 232 225 223 225 228 229 231 232 232 234 235 236 236 235 235 236 236 236 236 236 236 235 236 236 235 234 232 231 232 232 233 236 237 238 237 229
140 91 328 176 142 193 171 146 167 215 163 148 171 160 137 151 206 165 160 178 190 224 273 286 256 244 215 235 303 268 232 241 256 253 246 244 240 242 247 250 256 265 269 268 261 259 266 272 261 240 228 225 225 226 228 230 232 233 234 236 236 237 237 237 237 237 237 238 238 238 238 237 238 237 234 232 231 232 234 230 229 234 235 232 234 231
132 109 115 303 141 150 151 167 180 191 175 61 127 162 166 11 189 181 162 164 181 205 249 299 314 259 224 217 216 232 235 234 249 262 257 245 243 244 252 259 267 275 276 268 257 251 254 258 251 234 224 224 225 227 230 232 234 236 237 238 238 238 238 237 237 238 238 239 239 239 239 238 238 237 233 231 231 233 233 228 228 233 231 228 232 231
111 110 133 116 137 154 179 204 189 175 167 153 163 181 197 163 133 181 184 147 131 166 210 259 278 262 244 204 196 215 229 224 232 248 248 253 261 264 269 273 276 275 268 260 250 244 244 244 240 230 223 223 225 228 232 235 238 241 242 244 243 243 243 241 241 240 240 240 240 240 239 238 237 234 231 230 231 234 231 228 230 229 224 227 232 231
95 107 133 137 168 178 206 228 186 181 183 175 173 184 189 181 144 167 209 196 124 168 178 178 259 265 245 204 206 215 226 233 247 268 270 283 295 289 288 294 294 287 270 257 248 242 239 237 233 227 224 225 227 231 236 239 243 246 247 248 248 247 246 245 244 244 243 242 241 240 238 238 236 232 228 227 228 231 229 228 230 224 220 227 232 233
101 100 115 123 177 199 263 279 233 203 197 185 201 192 177 182 182 188 212 198 142 205 161 135 264 278 240 194 209 233 262 290 297 289 288 294 296 293 297 297 292 292 280 259 246 237 233 232 228 225 224 227 230 234 238 242 245 248 249 249 249 248 247 245 244 243 242 241 240 239 237 235 232 227 224 224 226 227 225 227 227 223 222 226 232 232
107 100 106 105 137 272 308 290 319 41 176 205 231 195 152 191 201 187 183 158 167 218 195 194 258 274 275 194 213 244 270 286 280 273 274 282 290 297 300 293 283 281 276 260 243 229 226 227 225 224 224 227 231 236 240 244 246 247 248 249 248 247 244 241 240 238 237 236 235 233 231 228 224 220 219 220 222 223 222 221 220 222 225 225 227 225
132 118 128 123 126 29 352 281 233 229 203 206 212 173 166 183 163 134 135 119 234 214 177 198 244 248 277 313 268 262 268 275 273 272 272 278 292 306 307 298 285 277 272 261 244 230 226 227 227 227 228 230 235 240 244 246 247 247 247 248 247 244 241 237 235 233 231 229 227 224 222 220 215 214 217 218 218 219 220 218 217 224 229 224 221 217
142 145 147 140 152 182 193 197 201 193 180 188 167 175 192 183 162 173 156 139 234 215 164 197 236 250 298 294 264 280 286 275 266 265 272 280 296 309 308 300 289 282 281 269 252 237 230 228 228 228 229 234 239 244 246 247 248 249 248 247 245 241 237 233 230 228 225 223 221 217 215 215 210 209 214 216 215 217 218 216 218 226 228 223 220 213
110 161 180 176 178 186 189 180 141 126 145 193 192 183 193 190 178 173 141 194 222 198 180 224 234 255 279 244 241 275 278 273 268 247 242 274 307 315 312 313 314 309 303 284 264 246 235 231 229 230 232 236 240 242 242 243 245 246 246 245 243 241 237 233 229 226 221 219 219 213 208 210 210 210 212 213 214 216 217 217 220 225 225 223 218 209
103 188 197 193 190 179 153 146 136 142 170 191 184 181 190 188 183 184 202 218 202 128 229 235 222 237 247 227 246 269 255 241 269 291 305 322 333 331 324 322 328 329 316 297 281 262 248 239 232 231 234 237 239 239 237 237 239 240 241 240 240 241 240 237 232 228 223 219 219 215 209 208 209 210 212 212 213 213 215 219 222 224 224 220 211 204
137 193 193 187 185 134 97 148 153 158 177 179 173 183 187 184 188 197 216 223 186 181 237 217 180 226 233 190 227 251 251 229 243 314 326 327 327 330 331 325 326 332 321 308 295 279 267 256 243 237 237 237 237 236 235 236 237 238 239 238 238 238 238 237 232 228 225 219 216 215 215 215 213 211 211 212 214 216 219 222 224 223 220 212 204 200
119 191 184 163 154 60 47 140 156 151 146 154 180 188 182 187 196 201 217 223 204 226 246 212 192 245 235 184 223 241 264 278 291 303 300 298 298 305 313 314 319 326 323 319 306 290 281 268 254 245 241 239 237 235 235 236 238 239 241 240 241 240 237 234 229 225 224 220 216 214 215 217 217 216 216 216 219 223 225 225 223 217 210 203 201 200
55 165 128 119 120 30 15 36 88 140 152 164 190 196 191 197 203 208 220 221 209 236 245 237 267 272 237 207 236 253 265 278 289 288 284 280 278 281 286 290 295 299 305 313 306 294 291 281 268 258 251 246 244 241 241 239 237 237 237 238 239 240 238 235 229 225 223 221 219 218 216 215 216 218 219 221 224 225 224 220 214 208 203 201 201 202
58 95 54 99 120 332 352 66 73 99 127 166 213 211 201 199 205 212 218 210 207 227 234 230 256 261 223 193 222 247 258 265 265 267 272 271 265 268 278 282 286 288 289 288 283 281 282 281 283 280 273 266 257 250 248 245 241 237 235 234 235 236 237 237 233 228 225 221 219 220 220 220 220 221 222 223 223 221 216 210 206 203 202 202 203 203
116 121 98 123 142 232 286 119 111 100 91 253 239 213 199 201 208 215 221 217 213 217 216 218 234 236 175 162 195 220 235 248 257 262 269 273 271 273 280 284 288 288 283 278 273 272 273 276 280 278 275 276 269 259 252 247 245 243 239 236 235 236 237 237 236 232 227 224 222 222 222 223 223 222 221 218 216 212 208 206 205 205 205 205 205 206
147 134 143 156 141 182 215 141 109 117 196 240 234 178 179 197 206 211 221 220 215 217 222 234 243 226 136 165 191 196 202 221 241 251 259 269 274 277 280 283 287 287 282 278 275 273 273 273 271 267 267 270 266 257 248 242 240 240 237 234 233 235 237 237 237 234 230 227 225 223 222 222 221 218 215 212 210 208 207 207 207 206 207 207 208 208
152 139 156 163 119 150 182 133 133 204 222 238 193 152 179 199 205 210 223 226 219 223 234 245 250 237 209 200 200 205 216 227 239 245 250 258 264 270 275 277 281 283 280 277 276 273 270 265 264 266 264 260 256 250 246 242 238 237 235 233 232 232 234 236 235 234 232 228 224 222 220 219 217 215 213 212 211 210 210 210 209 209 209 210 211 212
162 155 154 144 120 131 156 159 184 222 259 289 286 186 191 196 195 203 231 242 226 219 227 235 239 239 236 233 231 234 241 245 248 249 247 250 257 264 269 272 275 276 275 274 271 267 268 270 273 275 267 259 255 249 245 241 238 239 238 236 235 233 233 235 234 232 231 227 224 221 219 218 217 216 215 215 214 214 213 212 211 212 212 212 212 214
168 161 144 144 158 132 149 187 230 320 311 271 247 219 180 164 166 178 219 245 228 216 225 231 235 241 239 240 242 242 243 251 260 256 251 249 253 259 262 266 268 269 268 267 264 265 272 277 277 276 272 268 263 256 251 244 239 238 237 237 238 236 234 235 234 233 231 228 225 223 222 222 221 221 220 219 219 218 217 216 215 214 215 215 215 215
158 166 159 165 180 99 121 186 261 275 263 250 218 166 162 166 169 165 200 249 233 211 221 227 229 234 231 237 241 231 224 242 259 257 255 253 251 254 257 260 261 261 262 263 263 265 270 272 272 271 271 270 270 264 255 249 243 239 235 234 235 236 237 237 236 236 234 232 229 228 228 229 228 227 226 225 224 223 221 219 218 217 217 217 217 218
107 130 144 148 157 146 152 179 199 218 246 228 149 167 172 166 155 126 162 266 238 196 212 218 220 226 226 230 226 199 180 229 245 252 256 256 254 253 255 257 258 259 261 263 265 265 266 266 265 265 267 270 272 268 257 252 248 241 238 234 232 234 238 238 239 240 238 237 235 234 234 234 234 233 231 230 228 226 224 222 220 219 219 218 219 220
128 135 150 161 180 176 172 191 211 236 248 204 180 191 165 151 135 103 140 259 246 208 213 211 207 217 225 227 218 179 183 223 233 248 253 257 260 259 259 259 257 257 258 260 264 265 264 264 261 260 263 265 264 263 256 251 248 244 241 237 233 234 236 238 242 243 242 242 239 238 238 237 237 236 235 233 230 228 225 223 221 220 219 218 219 220
142 179 187 186 192 177 175 206 249 268 236 221 208 175 151 136 127 142 203 235 259 240 219 204 206 217 224 221 206 194 222 228 231 245 252 257 263 260 257 255 250 249 251 254 259 264 265 265 262 258 258 257 254 254 250 245 244 243 241 238 237 237 236 237 240 242 242 243 242 241 241 240 238 238 235 233 230 227 225 223 222 222 221 220 220 220
171 179 193 190 186 168 173 203 266 277 229 177 148 162 155 142 165 205 190 201 247 244 203 199 212 222 225 220 213 222 234 235 232 238 244 246 249 229 215 232 239 241 245 248 257 270 273 272 267 256 249 245 240 236 234 231 233 234 234 236 238 239 238 238 239 239 241 243 244 244 244 243 241 239 236 234 231 228 226 224 223 223 223 223 223 222
169 167 190 198 175 145 163 179 206 270 211 141 128 144 184 185 207 172 161 181 221 207 192 201 214 224 226 225 226 233 241 241 234 235 237 235 227 205 205 232 253 253 251 248 252 266 276 278 270 251 238 231 224 222 220 217 219 221 222 224 225 228 234 238 240 243 245 246 247 248 248 247 246 243 240 237 233 230 227 226 225 224 224 224 224 224
177 178 190 202 180 166 187 193 201 274 169 151 148 169 200 201 209 144 165 189 199 185 194 205 209 213 214 218 225 228 233 236 233 233 234 233 232 230 232 240 242 232 219 205 218 236 245 244 232 208 205 205 204 206 204 200 200 195 188 191 198 217 232 238 243 247 249 250 250 250 250 249 248 246 244 240 235 231 228 227 226 225 225 224 225 225
206 193 170 175 192 187 202 208 210 262 171 171 173 181 186 192 205 153 171 189 189 186 192 189 181 171 167 180 192 195 207 218 217 215 215 213 213 213 211 207 200 195 190 193 210 218 198 197 192 179 178 173 165 164 160 150 140 132 134 143 159 201 231 240 247 250 250 252 253 251 251 250 248 247 245 241 238 234 231 229 227 226 226 226 226 226
220 167 142 145 212 244 257 225 198 218 184 184 186 182 185 191 196 162 165 172 169 175 171 161 162 158 151 158 164 163 173 180 182 191 190 176 172 174 176 179 181 184 191 199 207 215 207 194 179 168 161 153 146 141 133 126 122 121 126 139 177 225 241 243 245 248 248 252 255 254 253 252 250 248 246 242 239 237 234 232 231 229 228 227 227 228
237 170 159 161 171 200 230 202 174 187 193 187 187 184 185 191 194 173 152 159 160 164 165 161 161 160 161 164 163 164 169 165 164 177 181 172 170 168 169 178 183 186 196 205 204 201 192 180 170 162 152 145 141 133 127 130 130 134 161 204 230 239 245 246 247 250 250 251 255 257 257 257 255 252 249 246 242 238 235 233 232 231 231 230 229 230
192 174 180 185 173 185 217 190 158 174 190 190 191 186 184 194 202 200 183 176 176 178 183 183 178 172 173 179 182 180 178 174 176 185 187 184 183 175 176 185 189 192 203 205 195 188 180 173 168 158 147 145 143 135 141 159 170 205 229 245 249 246 249 249 250 252 253 252 255 256 257 259 258 256 254 251 247 243 239 236 234 233 233 233 234 235
140 163 181 165 158 207 278 214 115 95 187 203 205 199 190 197 205 209 210 205 194 191 196 196 190 182 180 187 193 196 198 197 192 191 192 194 194 191 190 192 193 198 204 198 191 187 180 177 174 165 160 165 166 171 197 219 240 248 249 253 252 249 249 248 248 252 255 255 257 258 259 260 259 257 256 254 251 248 244 241 238 237 235 235 236 237
134 161 168 118 172 222 235 173 163 148 178 210 207 203 198 198 203 210 215 215 209 204 203 201 198 194 192 194 197 200 206 208 203 199 196 196 197 199 201 203 204 205 204 198 194 191 188 189 189 183 183 190 195 205 223 234 242 246 245 247 249 249 250 252 257 264 262 259 259 260 260 261 260 258 257 255 252 250 247 244 241 239 237 236 236 237
172 176 168 168 201 219 187 173 177 180 189 198 200 201 201 202 205 210 214 216 215 212 208 207 208 204 198 195 194 198 203 204 202 200 198 195 195 198 199 203 205 206 205 202 200 199 200 203 201 197 198 201 203 211 219 223 227 230 231 238 255 272 282 288 288 283 276 268 262 258 256 259 259 258 257 255 253 251 249 246 243 240 239 237 237 237
Height
1533 1538 1541 1541 1544 1548 1548 1548 1549 1552 1554 1557 1562 1564 1565 1567 1567 1565 1563 1560 1560 1559 1555 1554 1553 1548 1544 1541 1539 1542 1542 1542 1542 1542 1542 1543 1543 1544 1544 1545 1545 1545 1547 1550 1551 1551 1552 1554 1556 1557 1559 1560 1562 1563 1564 1565 1566 1568 1570 1571 1572 1574 1576 1577 1578 1579 1580 1581 1582 1583 1584 1585 1586 1588 1589 1589 1590 1590 1591 1591 1592 1593 1593 1593 1594 1595
1533 1535 1536 1537 1539 1542 1544 1545 1548 1552 1554 1556 1561 1565 1566 1569 1568 1564 1562 1559 1560 1560 1554 1552 1553 1549 1544 1540 1538 1541 1541 1539 1539 1539 1540 1540 1541 1542 1542 1542 1542 1543 1546 1547 1547 1548 1550 1551 1553 1554 1555 1557 1558 1559 1561 1562 1564 1566 1567 1568 1570 1572 1573 1574 1576 1577 1578 1579 1580 1581 1582 1584 1585 1586 1587 1587 1588 1588 1589 1589 1590 1591 1591 1592 1592 1592
1534 1533 1532 1534 1536 1540 1544 1546 1548 1551 1553 1556 1560 1564 1566 1568 1566 1562 1560 1559 1561 1560 1554 1552 1552 1547 1541 1538 1536 1538 1538 1535 1535 1536 1536 1537 1538 1539 1539 1539 1540 1542 1543 1543 1543 1545 1547 1549 1550 1551 1552 1553 1555 1557 1558 1559 1561 1563 1564 1566 1567 1569 1570 1571 1573 1574 1575 1577 1579 1580 1581 1583 1584 1585 1585 1586 1586 1587 1587 1587 1587 1588 1589 1590 1590 1591
1533 1531 1530 1533 1535 1540 1545 1547 1548 1550 1553 1556 1558 1562 1565 1566 1566 1563 1561 1560 1559 1560 1557 1554 1553 1545 1538 1535 1533 1533 1533 1531 1532 1533 1533 1535 1535 1535 1536 1537 1537 1538 1539 1539 1541 1543 1544 1546 1547 1548 1549 1551 1552 1553 1555 1556 1558 1559 1561 1562 1564 1566 1567 1569 1570 1572 1574 1576 1577 1579 1580 1581 1582 1582 1583 1584 1584 1584 1584 1584 1585 1586 1587 1587 1588 1589
1529 1528 1528 1531 1535 1538 1544 1547 1548 1551 1555 1557 1557 1559 1561 1563 1565 1564 1563 1559 1557 1558 1557 1556 1554 1543 1533 1532 1529 1528 1530 1529 1529 1530 1530 1531 1532 1532 1533 1534 1534 1534 1535 1536 1538 1540 1542 1543 1544 1545 1547 1548 1549 1550 1551 1553 1555 1556 1557 1559 1561 1563 1564 1566 1567 1570 1572 1573 1575 1576 1577 1578 1578 1579 1580 1580 1581 1581 1582 1582 1583 1584 1585 1586 1586 1587
1528 1527 1527 1531 1535 1538 1542 1546 1547 1549 1554 1558 1557 1556 1558 1560 1563 1564 1563 1562 1562 1561 1556 1558 1557 1541 1529 1529 1527 1525 1527 1527 1526 1527 1527 1526 1528 1529 1529 1530 1530 1531 1532 1533 1534 1537 1539 1540 1541 1542 1544 1545 1545 1546 1549 1551 1552 1553 1555 1557 1558 1560 1561 1563 1565 1567 1569 1570 1571 1572 1573 1574 1574 1575 1576 1576 1578 1579 1580 1580 1581 1582 1582 1583 1584 1585
1526 1526 1526 1530 1534 1537 1541 1544 1544 1545 1553 1558 1553 1553 1557 1558 1561 1562 1562 1566 1568 1562 1556 1557 1559 1548 1533 1524 1522 1524 1525 1524 1524 1525 1524 1524 1524 1525 1525 1526 1527 1527 1528 1529 1531 1533 1535 1536 1538 1539 1540 1541 1541 1544 1547 1548 1549 1550 1552 1554 1555 1556 1558 1560 1562 1563 1565 1566 1567 1569 1569 1571 1572 1572 1573 1574 1576 1577 1578 1579 1579 1580 1580 1581 1582 1582
1522 1527 1529 1529 1533 1537 1539 1541 1542 1542 1550 1553 1547 1549 1552 1553 1557 1559 1561 1567 1567 1562 1557 1555 1558 1557 1543 1525 1521 1526 1524 1521 1522 1523 1521 1521 1521 1521 1521 1521 1522 1524 1525 1526 1528 1529 1531 1532 1534 1535 1536 1538 1539 1541 1544 1544 1545 1548 1549 1551 1552 1553 1555 1556 1558 1559 1561 1562 1564 1565 1566 1567 1569 1570 1571 1573 1574 1575 1576 1577 1577 1577 1577 1578 1579 1580
1520 1524 1526 1527 1532 1536 1534 1534 1537 1539 1546 1548 1546 1548 1549 1551 1554 1555 1560 1564 1565 1566 1561 1553 1556 1558 1542 1525 1525 1528 1523 1519 1518 1518 1518 1517 1517 1517 1516 1517 1518 1520 1521 1523 1524 1526 1527 1529 1530 1532 1533 1535 1536 1538 1539 1540 1542 1545 1546 1548 1549 1550 1551 1553 1554 1555 1557 1559 1560 1562 1563 1564 1565 1567 1569 1570 1572 1573 1574 1574 1574 1574 1575 1576 1577 1578
1519 1519 1521 1524 1528 1530 1530 1532 1535 1538 1543 1545 1546 1548 1550 1553 1555 1557 1560 1560 1565 1568 1558 1550 1554 1554 1537 1521 1523 1526 1522 1519 1516 1515 1515 1512 1512 1513 1512 1513 1514 1516 1518 1519 1521 1522 1524 1525 1527 1529 1530 1531 1532 1533 1535 1536 1538 1540 1542 1544 1545 1546 1548 1549 1550 1552 1553 1555 1557 1558 1559 1561 1562 1564 1566 1567 1568 1569 1570 1571 1572 1572 1572 1573 1574 1575
1518 1519 1521 1523 1525 1526 1530 1534 1537 1539 1541 1543 1546 1548 1552 1556 1556 1558 1559 1560 1568 1565 1553 1550 1551 1553 1544 1522 1515 1518 1515 1512 1512 1512 1512 1509 1508 1509 1509 1510 1511 1512 1514 1515 1517 1518 1519 1521 1523 1525 1525 1526 1528 1529 1531 1531 1533 1535 1537 1539 1541 1543 1545 1546 1547 1548 1550 1552 1553 1554 1556 1557 1559 1561 1562 1563 1565 1566 1567 1568 1569 1569 1570 1570 1571 1573
1520 1522 1524 1523 1524 1525 1529 1536 1539 1540 1540 1542 1544 1547 1553 1558 1558 1561 1562 1564 1568 1559 1554 1557 1555 1555 1549 1523 1510 1510 1508 1507 1508 1507 1508 1506 1505 1506 1506 1507 1508 1509 1510 1511 1512 1513 1515 1516 1518 1520 1521 1522 1524 1525 1526 1528 1530 1531 1533 1535 1537 1539 1541 1542 1543 1544 1546 1547 1549 1550 1552 1554 1555 1557 1558 1560 1561 1562 1563 1565 1566 1567 1567 1568 1569 1570
1523 1524 1524 1524 1525 1524 1527 1536 1543 1542 1541 1543 1545 1548 1557 1566 1569 1568 1568 1569 1566 1556 1555 1559 1557 1549 1533 1514 1509 1508 1505 1506 1505 1503 1503 1502 1501 1502 1503 1504 1505 1506 1507 1507 1508 1508 1510 1511 1512 1514 1516 1518 1520 1521 1523 1525 1526 1528 1529 1531 1532 1534 1537 1538 1539 1540 1542 1543 1544 1546 1548 1550 1552 1553 1555 1556 1557 1559 1560 1561 1563 1564 1563 1564 1566 1567
1525 1527 1525 1524 1526 1523 1522 1531 1540 1542 1542 1542 1543 1546 1554 1567 1574 1572 1570 1569 1562 1553 1552 1555 1555 1541 1519 1507 1505 1501 1500 1501 1499 1500 1499 1499 1499 1499 1500 1501 1502 1503 1503 1503 1504 1504 1505 1506 1507 1508 1510 1514 1516 1518 1520 1521 1523 1524 1525 1527 1528 1530 1533 1534 1535 1537 1538 1539 1541 1543 1545 1546 1548 1549 1551 1553 1554 1556 1557 1558 1559 1560 1561 1562 1563 1564
1519 1523 1520 1519 1521 1520 1520 1523 1527 1531 1537 1538 1537 1539 1543 1549 1555 1558 1559 1557 1550 1548 1552 1555 1548 1528 1511 1504 1499 1496 1497 1497 1496 1497 1496 1496 1497 1496 1497 1497 1498 1499 1499 1500 1500 1501 1501 1502 1502 1503 1505 1508 1512 1514 1516 1517 1519 1520 1522 1523 1525 1527 1529 1530 1532 1533 1534 1536 1538 1540 1541 1543 1544 1546 1548 1550 1551 1553 1554 1555 1556 1557 1558 1559 1561 1562
1507 1510 1511 1513 1515 1515 1518 1521 1521 1526 1537 1540 1537 1538 1540 1536 1538 1546 1550 1548 1546 1548 1550 1549 1535 1515 1506 1500 1496 1497 1497 1494 1493 1493 1493 1493 1492 1493 1493 1493 1494 1495 1496 1497 1497 1497 1498 1498 1499 1499 1501 1504 1507 1510 1511 1513 1515 1516 1518 1520 1522 1524 1525 1527 1528 1529 1531 1533 1535 1536 1538 1540 1541 1543 1545 1546 1548 1550 1551 1553 1554 1555 1556 1556 1558 1559
1502 1509 1513 1514 1516 1515 1516 1519 1520 1523 1532 1540 1540 1538 1536 1533 1533 1542 1549 1552 1553 1548 1541 1536 1524 1512 1509 1500 1492 1493 1494 1491 1492 1490 1490 1489 1488 1490 1489 1488 1490 1491 1492 1494 1494 1495 1495 1495 1496 1496 1497 1500 1503 1506 1508 1510 1512 1513 1515 1517 1518 1520 1521 1523 1525 1526 1528 1530 1531 1533 1534 1536 1538 1540 1541 1543 1545 1547 1548 1550 1551 1552 1553 1554 1555 1557
1495 1511 1517 1514 1517 1518 1516 1519 1521 1519 1523 1532 1536 1531 1531 1536 1536 1536 1543 1549 1552 1547 1537 1532 1524 1515 1514 1504 1491 1491 1492 1489 1488 1488 1487 1486 1486 1487 1485 1485 1487 1487 1489 1491 1491 1493 1493 1492 1493 1493 1495 1498 1500 1503 1505 1507 1509 1510 1511 1513 1514 1516 1518 1520 1522 1523 1525 1526 1528 1529 1531 1533 1535 1536 1538 1540 1542 1544 1545 1547 1548 1549 1550 1551 1553 1554
1485 1505 1519 1516 1516 1519 1517 1520 1524 1523 1520 1523 1524 1522 1526 1535 1536 1535 1539 1541 1544 1543 1533 1528 1527 1519 1512 1502 1491 1490 1490 1486 1485 1485 1485 1483 1483 1483 1482 1482 1484 1484 1487 1488 1489 1490 1490 1491 1491 1491 1493 1496 1498 1500 1501 1503 1505 1506 1508 1509 1511 1513 1515 1517 1519 1520 1522 1523 1524 1526 1528 1529 1531 1533 1535 1537 1539 1541 1542 1544 1545 1546 1548 1549 1550 1552
1479 1495 1517 1519 1516 1520 1520 1520 1522 1522 1522 1523 1523 1523 1524 1527 1528 1530 1534 1534 1535 1536 1529 1526 1525 1512 1502 1497 1490 1487 1487 1485 1484 1483 1482 1481 1480 1480 1481 1481 1482 1483 1484 1485 1486 1487 1487 1488 1489 1489 1492 1493 1495 1498 1498 1500 1502 1503 1505 1506 1507 1510 1511 1513 1515 1516 1518 1519 1521 1523 1524 1526 1527 1530 1532 1534 1536 1537 1539 1541 1543 1544 1545 1547 1548 1550
1479 1489 1509 1519 1519 1520 1519 1515 1513 1513 1518 1521 1522 1524 1524 1524 1525 1527 1528 1527 1528 1531 1530 1528 1520 1501 1491 1491 1487 1483 1483 1482 1482 1481 1479 1479 1480 1481 1481 1481 1481 1481 1481 1482 1482 1483 1484 1485 1486 1487 1489 1491 1493 1495 1496 1498 1499 1501 1502 1503 1504 1506 1507 1509 1511 1512 1514 1516 1517 1519 1520 1522 1524 1526 1528 1530 1532 1534 1536 1538 1539 1541 1543 1544 1546 1547
1480 1487 1503 1518 1521 1517 1512 1509 1509 1510 1511 1512 1514 1517 1517 1519 1523 1526 1527 1524 1524 1527 1528 1529 1519 1496 1484 1486 1484 1481 1480 1480 1482 1482 1480 1479 1480 1480 1480 1480 1479 1479 1479 1479 1479 1480 1482 1482 1484 1486 1487 1489 1491 1492 1494 1495 1497 1498 1499 1500 1501 1502 1504 1505 1507 1508 1510 1512 1513 1515 1517 1519 1520 1523 1525 1527 1529 1531 1533 1535 1536 1538 1540 1542 1543 1545
1477 1489 1505 1516 1516 1513 1511 1511 1511 1511 1509 1510 1512 1511 1512 1515 1517 1519 1523 1522 1523 1526 1525 1530 1523 1494 1478 1482 1484 1481 1481 1481 1483 1483 1481 1479 1479 1479 1479 1478 1478 1477 1477 1477 1477 1478 1480 1481 1482 1484 1485 1487 1489 1490 1492 1492 1493 1495 1495 1496 1497 1498 1500 1501 1503 1504 1506 1507 1509 1511 1513 1515 1517 1519 1521 1523 1525 1527 1530 1532 1533 1535 1537 1539 1540 1542
1474 1488 1503 1512 1512 1510 1510 1510 1510 1511 1510 1510 1509 1507 1510 1512 1508 1511 1516 1517 1521 1521 1519 1528 1523 1493 1476 1481 1482 1480 1483 1482 1481 1481 1480 1478 1476 1477 1477 1476 1476 1475 1475 1475 1476 1477 1478 1479 1480 1481 1483 1485 1486 1487 1489 1489 1490 1491 1492 1493 1494 1495 1496 1497 1498 1500 1501 1503 1505 1507 1509 1511 1513 1515 1517 1520 1522 1524 1526 1529 1530 1532 1534 1536 1538 1539
1472 1484 1496 1508 1516 1515 1513 1513 1511 1509 1508 1505 1504 1508 1509 1507 1509 1514 1516 1517 1520 1514 1512 1522 1515 1489 1478 1481 1479 1479 1481 1480 1479 1479 1478 1478 1476 1475 1475 1474 1473 1473 1473 1474 1474 1475 1476 1477 1479 1480 1481 1483 1484 1485 1486 1487 1488 1488 1489 1490 1491 1492 1493 1493 1495 1496 1497 1499 1501 1503 1505 1507 1509 1512 1514 1517 1519 1521 1524 1526 1528 1529 1531 1533 1535 1536
1467 1477 1483 1495 1507 1508 1505 1502 1496 1495 1502 1504 1503 1505 1504 1505 1509 1510 1513 1520 1517 1506 1507 1510 1498 1481 1477 1477 1476 1476 1477 1477 1477 1477 1477 1476 1476 1475 1474 1473 1472 1472 1472 1472 1473 1474 1475 1476 1477 1479 1480 1481 1482 1483 1484 1485 1485 1486 1487 1487 1488 1489 1489 1490 1492 1493 1495 1497 1498 1500 1502 1504 1506 1509 1512 1514 1517 1519 1521 1524 1526 1527 1529 1530 1532 1534
1465 1473 1472 1474 1479 1479 1478 1479 1477 1481 1493 1497 1496 1498 1500 1503 1505 1506 1512 1513 1502 1500 1503 1494 1483 1481 1479 1475 1474 1474 1475 1476 1475 1476 1477 1476 1476 1476 1474 1473 1472 1471 1471 1471 1472 1473 1473 1474 1476 1477 1478 1480 1480 1481 1482 1483 1483 1484 1485 1485 1486 1487 1487 1489 1490 1491 1493 1495 1496 1498 1500 1502 1505 1507 1510 1512 1515 1517 1519 1521 1523 1524 1526 1528 1530 1532
1461 1469 1467 1464 1466 1466 1468 1473 1474 1477 1482 1485 1489 1495 1498 1500 1503 1505 1504 1494 1489 1500 1499 1483 1481 1485 1478 1475 1476 1473 1473 1476 1475 1474 1474 1474 1475 1475 1474 1472 1471 1470 1470 1470 1471 1471 1471 1472 1474 1475 1476 1477 1478 1479 1479 1480 1481 1481 1482 1483 1484 1485 1486 1487 1489 1490 1491 1493 1494 1496 1498 1501 1503 1506 1508 1510 1513 1515 1517 1518 1520 1521 1523 1526 1528 1530
1452 1458 1458 1461 1467 1469 1469 1472 1473 1475 1478 1481 1486 1491 1493 1496 1499 1498 1492 1483 1486 1494 1485 1475 1481 1480 1473 1475 1474 1469 1471 1474 1473 1474 1474 1474 1474 1474 1473 1472 1471 1471 1470 1470 1470 1470 1470 1471 1472 1473 1475 1475 1476 1477 1477 1478 1478 1479 1480 1481 1482 1484 1485 1486 1487 1488 1490 1491 1493 1495 1497 1500 1502 1504 1506 1508 1510 1512 1514 1515 1517 1519 1521 1523 1526 1529
1448 1453 1457 1462 1468 1471 1475 1476 1474 1475 1480 1482 1485 1488 1490 1491 1490 1486 1481 1479 1486 1487 1477 1477 1482 1476 1473 1473 1468 1467 1471 1470 1470 1473 1473 1473 1474 1474 1474 1473 1472 1471 1470 1470 1470 1470 1470 1470 1471 1472 1473 1473 1474 1474 1475 1476 1476 1477 1479 1480 1481 1482 1483 1484 1485 1487 1488 1490 1492 1494 1497 1499 1500 1502 1504 1506 1508 1509 1511 1513 1515 1517 1519 1521 1524 1527
1449 1456 1461 1463 1469 1477 1480 1479 1477 1478 1479 1481 1485 1487 1488 1487 1486 1483 1479 1480 1488 1484 1475 1481 1486 1476 1469 1469 1467 1469 1470 1469 1470 1471 1470 1471 1472 1473 1473 1472 1471 1471 1471 1470 1470 1470 1470 1470 1470 1470 1471 1471 1472 1472 1473 1474 1475 1475 1477 1478 1479 1480 1481 1482 1483 1485 1486 1488 1490 1492 1494 1496 1499 1501 1502 1504 1506 1507 1509 1511 1512 1515 1517 1520 1522 1524
1452 1461 1464 1464 1472 1480 1481 1480 1481 1480 1480 1484 1485 1482 1481 1481 1481 1479 1476 1476 1478 1473 1473 1486 1484 1464 1456 1463 1467 1468 1467 1468 1469 1468 1467 1468 1469 1471 1471 1469 1468 1469 1470 1470 1470 1469 1469 1469 1469 1470 1469 1470 1471 1471 1471 1472 1472 1473 1474 1475 1477 1478 1479 1480 1481 1483 1484 1486 1488 1490 1492 1494 1496 1498 1499 1501 1503 1505 1507 1509 1511 1513 1515 1517 1520 1522
1454 1459 1464 1467 1473 1480 1484 1481 1477 1478 1486 1485 1471 1464 1469 1474 1474 1474 1471 1468 1466 1466 1471 1475 1462 1447 1451 1460 1463 1464 1466 1466 1464 1464 1465 1464 1464 1466 1466 1465 1465 1465 1466 1468 1468 1468 1468 1467 1468 1468 1468 1468 1469 1469 1470 1470 1470 1471 1472 1473 1474 1475 1477 1478 1479 1481 1482 1484 1486 1488 1490 1492 1493 1495 1497 1499 1501 1503 1505 1507 1509 1511 1513 1515 1518 1520
1451 1454 1461 1463 1468 1481 1487 1478 1474 1483 1486 1468 1446 1446 1459 1465 1464 1465 1462 1459 1461 1462 1461 1455 1447 1448 1455 1456 1455 1459 1461 1460 1460 1462 1462 1461 1460 1461 1462 1462 1463 1462 1462 1464 1464 1465 1465 1466 1466 1466 1466 1466 1466 1467 1468 1467 1468 1469 1470 1471 1472 1473 1474 1476 1477 1479 1480 1482 1484 1486 1487 1489 1491 1493 1495 1497 1499 1501 1503 1505 1507 1509 1512 1514 1516 1519
1446 1451 1457 1457 1465 1481 1485 1477 1482 1486 1468 1444 1437 1442 1448 1449 1451 1454 1455 1455 1459 1460 1456 1452 1449 1450 1451 1451 1452 1454 1455 1455 1457 1458 1458 1459 1458 1458 1459 1460 1460 1459 1460 1460 1461 1462 1463 1463 1463 1464 1464 1464 1464 1464 1465 1465 1466 1466 1467 1468 1469 1470 1472 1473 1475 1477 1478 1480 1482 1483 1485 1487 1489 1491 1493 1495 1497 1499 1501 1503 1505 1507 1510 1512 1514 1517
1439 1445 1450 1456 1467 1479 1479 1474 1473 1464 1445 1436 1441 1443 1440 1443 1448 1455 1459 1455 1453 1454 1451 1447 1444 1445 1447 1449 1451 1452 1453 1454 1454 1452 1453 1455 1455 1455 1456 1456 1456 1457 1458 1458 1459 1459 1460 1460 1461 1461 1462 1462 1462 1462 1462 1463 1463 1464 1464 1466 1467 1468 1470 1471 1472 1474 1476 1478 1480 1482 1484 1485 1487 1489 1491 1493 1495 1497 1499 1501 1503 1505 1508 1510 1512 1515
1436 1439 1444 1455 1465 1469 1470 1467 1460 1452 1444 1436 1434 1435 1437 1440 1444 1451 1455 1446 1439 1442 1443 1441 1442 1444 1444 1446 1448 1450 1452 1452 1450 1447 1447 1450 1452 1452 1451 1451 1453 1455 1455 1455 1456 1456 1457 1458 1458 1459 1459 1459 1460 1460 1460 1460 1461 1461 1462 1463 1464 1466 1467 1468 1470 1472 1474 1476 1477 1479 1482 1484 1485 1487 1489 1491 1493 1494 1496 1498 1501 1503 1505 1507 1509 1512
1436 1437 1438 1449 1461 1463 1465 1467 1464 1460 1448 1429 1424 1430 1433 1435 1437 1444 1449 1439 1428 1434 1439 1437 1439 1440 1440 1443 1446 1447 1451 1453 1448 1441 1441 1445 1446 1445 1445 1447 1449 1451 1451 1452 1453 1453 1454 1455 1455 1456 1456 1456 1457 1458 1458 1458 1458 1458 1460 1460 1462 1463 1464 1465 1467 1470 1472 1473 1476 1478 1480 1482 1484 1486 1487 1489 1490 1492 1494 1496 1498 1501 1503 1505 1507 1510
1437 1439 1436 1444 1457 1458 1456 1458 1460 1454 1437 1422 1423 1428 1430 1432 1435 1444 1453 1442 1424 1425 1430 1428 1430 1434 1436 1438 1440 1443 1450 1450 1443 1437 1436 1438 1439 1441 1443 1445 1446 1447 1448 1448 1449 1450 1451 1451 1452 1452 1453 1454 1455 1455 1455 1456 1456 1456 1457 1458 1459 1460 1461 1463 1465 1467 1470 1472 1474 1477 1478 1480 1482 1483 1485 1487 1489 1490 1492 1494 1496 1498 1501 1503 1506 1508
1437 1439 1440 1443 1449 1450 1449 1451 1450 1440 1427 1422 1424 1425 1427 1430 1433 1446 1457 1442 1420 1417 1420 1419 1424 1428 1429 1431 1435 1440 1443 1440 1435 1432 1432 1434 1436 1439 1440 1441 1442 1444 1444 1444 1445 1446 1446 1447 1448 1449 1450 1451 1452 1452 1453 1453 1453 1454 1455 1456 1457 1458 1459 1462 1463 1465 1468 1470 1472 1474 1476 1477 1479 1481 1483 1485 1486 1488 1490 1492 1494 1496 1498 1501 1503 1505
1439 1439 1440 1439 1442 1446 1447 1447 1442 1431 1422 1422 1424 1423 1425 1430 1435 1443 1441 1425 1414 1415 1416 1417 1421 1423 1422 1426 1431 1433 1431 1428 1429 1430 1430 1432 1435 1436 1437 1438 1439 1440 1441 1442 1442 1443 1443 1444 1445 1446 1447 1448 1449 1450 1451 1451 1452 1452 1453 1454 1455 1456 1458 1460 1462 1463 1465 1467 1469 1471 1473 1474 1476 1478 1480 1482 1483 1485 1488 1490 1492 1494 1496 1499 1501 1503
1431 1434 1437 1435 1438 1444 1444 1444 1444 1431 1414 1413 1422 1424 1425 1427 1429 1425 1417 1413 1414 1414 1414 1416 1419 1419 1421 1425 1426 1426 1425 1425 1428 1429 1430 1432 1433 1434 1436 1436 1437 1438 1439 1440 1440 1441 1442 1442 1442 1444 1444 1445 1447 1448 1448 1449 1450 1450 1451 1452 1453 1455 1456 1457 1459 1461 1462 1464 1466 1467 1469 1471 1473 1475 1477 1479 1481 1483 1485 1488 1490 1492 1495 1497 1499 1500
1417 1425 1430 1429 1430 1437 1441 1445 1444 1425 1404 1405 1418 1425 1423 1419 1414 1410 1410 1413 1414 1413 1415 1417 1417 1418 1421 1423 1423 1424 1424 1425 1427 1428 1428 1430 1432 1433 1435 1435 1436 1437 1438 1438 1439 1440 1440 1441 1441 1442 1443 1444 1445 1445 1446 1447 1448 1449 1450 1451 1452 1453 1454 1455 1457 1458 1460 1461 1463 1464 1466 1468 1470 1472 1474 1476 1478 1481 1483 1485 1488 1490 1492 1494 1495 1497
1409 1411 1415 1416 1417 1423 1429 1429 1421 1408 1400 1403 1408 1411 1413 1412 1409 1409 1412 1413 1413 1414 1416 1416 1416 1419 1421 1421 1422 1424 1424 1425 1426 1426 1427 1429 1430 1432 1433 1434 1435 1436 1436 1438 1438 1438 1439 1440 1440 1441 1442 1442 1443 1444 1445 1446 1447 1448 1449 1450 1451 1452 1453 1454 1455 1456 1458 1459 1460 1462 1464 1465 1467 1469 1471 1473 1475 1477 1480 1482 1484 1486 1488 1490 1492 1493
1398 1395 1400 1405 1408 1410 1410 1407 1404 1402 1404 1404 1402 1402 1406 1409 1410 1411 1411 1412 1413 1415 1415 1416 1418 1419 1419 1421 1422 1422 1423 1425 1425 1425 1427 1428 1428 1430 1432 1432 1434 1435 1436 1437 1437 1438 1439 1439 1440 1441 1441 1442 1443 1444 1445 1446 1447 1448 1449 1449 1451 1452 1452 1453 1454 1455 1456 1457 1458 1460 1461 1463 1464 1466 1468 1470 1472 1474 1476 1478 1480 1482 1484 1486 1488 1489
1394 1394 1396 1400 1405 1406 1403 1401 1403 1404 1403 1403 1404 1405 1406 1408 1410 1411 1411 1412 1413 1414 1415 1417 1418 1418 1419 1420 1421 1422 1423 1424 1424 1425 1426 1427 1428 1430 1430 1431 1433 1434 1435 1436 1436 1437 1438 1438 1439 1440 1441 1442 1443 1443 1445 1446 1446 1447 1448 1449 1450 1451 1452 1453 1453 1454 1455 1456 1457 1458 1459 1460 1462 1463 1465 1467 1469 1471 1473 1475 1477 1479 1481 1482 1484 1486
1394 1394 1395 1397 1402 1404 1398 1395 1399 1401 1401 1402 1404 1404 1405 1407 1409 1410 1411 1413 1413 1414 1416 1417 1417 1418 1419 1419 1420 1422 1422 1423 1424 1425 1425 1426 1428 1429 1429 1431 1432 1433 1434 1435 1436 1437 1438 1438 1439 1440 1441 1442 1443 1443 1445 1446 1446 1447 1448 1448 1449 1450 1450 1451 1452 1453 1454 1454 1455 1456 1457 1458 1460 1461 1463 1464 1466 1468 1470 1472 1474 1476 1478 1479 1482 1483
1388 1391 1393 1395 1397 1396 1391 1392 1397 1398 1398 1401 1402 1403 1405 1406 1407 1409 1411 1412 1413 1414 1415 1416 1416 1417 1418 1419 1420 1421 1421 1422 1424 1424 1425 1426 1427 1428 1429 1431 1432 1433 1434 1435 1435 1436 1437 1438 1439 1440 1441 1442 1442 1443 1444 1445 1445 1446 1446 1447 1447 1448 1448 1449 1450 1451 1452 1453 1453 1454 1455 1456 1458 1459 1460 1462 1464 1465 1467 1469 1471 1473 1475 1477 1479 1480
1383 1386 1388 1390 1392 1393 1392 1395 1398 1398 1399 1401 1401 1401 1403 1404 1405 1408 1409 1409 1411 1412 1413 1414 1415 1416 1417 1418 1419 1420 1420 1422 1422 1423 1425 1426 1426 1428 1429 1430 1431 1432 1433 1434 1435 1436 1436 1437 1438 1439 1440 1441 1442 1442 1443 1443 1444 1444 1445 1445 1446 1446 1447 1447 1448 1449 1450 1451 1452 1453 1454 1455 1456 1457 1458 1460 1461 1463 1464 1466 1468 1470 1472 1475 1476 1478
1379 1382 1385 1388 1390 1388 1386 1389 1392 1393 1394 1396 1396 1397 1399 1400 1402 1404 1405 1407 1409 1410 1412 1413 1414 1415 1416 1417 1418 1419 1420 1421 1422 1423 1424 1425 1426 1427 1428 1429 1430 1431 1432 1433 1434 1435 1436 1437 1437 1438 1439 1440 1440 1441 1441 1442 1442 1443 1443 1443 1444 1444 1445 1445 1446 1447 1448 1449 1450 1451 1452 1453 1454 1455 1456 1457 1458 1460 1461 1463 1465 1467 1469 1471 1473 1474
1372 1374 1377 1380 1379 1377 1377 1381 1385 1385 1386 1389 1390 1393 1396 1397 1399 1401 1403 1405 1407 1409 1411 1412 1413 1414 1415 1415 1416 1418 1419 1420 1421 1422 1423 1424 1425 1426 1427 1428 1430 1430 1431 1433 1433 1434 1435 1436 1436 1437 1438 1438 1439 1440 1440 1440 1441 1441 1441 1442 1442 1442 1443 1443 1444 1445 1446 1447 1448 1449 1449 1450 1451 1452 1454 1455 1456 1457 1458 1460 1462 1463 1465 1467 1469 1470